Location: Grand Mazuras
(45.9128°N, 1.7636°E)
Time: 21:19:42
(UTC+00:00)

X-37B - Visible Passes

Search period start: 21 September 2021 00:00
Search period end: 01 October 2021 00:00
Orbit: 381 x 393 km, 45.0° (Epoch: 29 August)

Date Brightness Start Highest point End Pass type
(mag) Time Alt. Az. Time Alt. Az. Time Alt. Az.
21 Sep 3.2 04:18:49 10° S 04:20:30 14° SE 04:22:10 10° ESE visible
22 Sep 1.9 04:55:28 10° SW 04:58:21 33° SSE 05:01:15 10° E visible
23 Sep 2.4 03:59:30 20° S 04:00:07 22° SSE 04:02:38 10° E visible
24 Sep 1.2 04:36:10 19° SW 04:38:06 47° SSE 04:41:10 10° E visible
25 Sep 2.2 03:40:29 29° SE 03:40:29 29° SE 03:42:42 10° E visible
26 Sep 0.7 04:17:04 42° SW 04:17:54 63° S 04:21:02 10° E visible
27 Sep 3.0 03:21:20 21° E 03:21:20 21° E 03:22:38 10° E visible
27 Sep 0.6 04:53:37 15° W 04:56:05 77° S 04:59:16 10° E visible
28 Sep 0.6 03:57:54 71° SE 03:57:54 71° SE 04:00:53 10° E visible
29 Sep 3.9 03:02:12 12° E 03:02:12 12° E 03:02:30 10° E visible
29 Sep 0.6 04:34:29 29° W 04:35:56 71° S 04:39:05 10° ESE visible
30 Sep 2.2 03:38:49 33° E 03:38:49 33° E 03:40:44 10° E visible
30 Sep 1.3 05:11:07 10° W 05:14:03 41° SSW 05:17:03 10° SE visible
